Find Starlink 31763

NORAD ID: 59623 Int'l Des: 2024-080 Owner: SPXS Country: US Constellation: starlink operational
LEOCIRCULAR

リアルタイム位置

3D地球を読み込み中...

Starlink 31763について

説明を読み込み中...

次回通過

Passes for default location (London). Set your location on the main map for personalized predictions.

高度履歴

Loading altitude history...

軌道要素

1 59623U 24080Y 26105.53798601 .00001185 00000-0 52595-4 0 9997
2 59623 43.0023 190.1934 0001214 286.0734 73.9984 15.27580004110165
Epoch: Apr 15, 2026 • Age: 22 hours

現在のステータス

高度 495.6 km
速度 7.62 km/s
衛星直下点 -42.94°S, 86.37°E
打ち上げ日 Apr 28, 2024
運用期間 1.9 years
タイプ internet

技術仕様

分類 Payload
質量 730.00 kg
乾燥質量 700.00 kg
総質量 730.00 kg
長さ 0.30 m
直径 4.10 m
スパン 29.00 m
形状 Box + pan
製造者 SPXS
バスタイプ Starlink V2M
フェーズステータス In Orbit
所有者/国 SPXS/US

Most Searched